Location: Diess
(48.5724°N, 11.1018°E)
Time: 23:46:39
(UTC+00:00)

Daily predictions for brighter satellites

Satellite Brightness Start Highest point End
(mag) Time Altitude Azimuth Time Altitude Azimuth Time Altitude Azimuth
BREEZE-M DEB (TANK) 4.2 17:01:25 10° SSW 17:05:26 46° SE 17:19:02 10° ENE
PAYLOAD B 4.3 17:08:33 10° SE 17:13:56 58° ENE 17:19:20 10° N
Cosmos 1634 Rocket 4.3 17:07:51 10° NNW 17:14:02 77° W 17:20:12 10° S
CZ-4B DEB 4.2 17:09:53 10° SSE 17:15:19 76° ENE 17:20:49 10° NNW
BREEZE-M DEB (TANK) 2.3 17:16:53 10° W 17:19:00 54° SSW 17:21:51 10° ESE
Cosmos 1674 3.8 17:16:14 10° NNW 17:19:52 49° W 17:23:27 10° S
Cosmos 1975 4.1 17:21:12 10° SSW 17:25:06 46° WNW 17:29:00 10° N
COSMO-SKYMED 1 2.5 17:21:06 10° NNE 17:25:27 69° ESE 17:29:47 10° S
Cosmos 2263 Rocket 2.2 17:19:54 10° NNW 17:25:38 82° ENE 17:31:21 10° SSE
Cosmos 1437 Rocket 3.9 17:27:34 10° SE 17:30:24 21° E 17:33:15 10° NE
Spot 1 4.2 17:26:52 10° NNE 17:30:55 45° E 17:34:51 10° S
ASTEX 1 3.4 17:26:25 10° N 17:31:25 70° E 17:36:23 10° S
HJ-1C 3.9 17:29:37 10° SE 17:32:27 32° ENE 17:35:16 10° N
Cosmos 1741 Rocket 4.0 17:27:53 10° SSW 17:33:09 77° ESE 17:38:26 10° NNE
CZ-4C R/B 4.4 17:30:26 10° N 17:34:36 53° WNW 17:38:34 10° SSW
USA 267 3.4 17:29:20 10° SE 17:35:55 81° SW 17:42:31 10° NW
Cosmos 1626 4.3 17:33:08 10° NNW 17:36:22 31° W 17:39:35 10° SSW
Cosmos 1814 Rocket 4.0 17:31:54 10° NNW 17:37:08 64° ENE 17:42:17 10° SE
SL-4 R/B 2.4 17:33:21 10° WNW 17:37:44 75° SSW 17:42:23 10° ESE
Cosmos 2084 Rocket 4.0 17:36:51 10° NNW 17:40:23 34° NE 17:43:23 14° E
Cosmos 1805 3.3 17:37:55 10° SSW 17:41:48 81° W 17:45:43 10° N
Cosmos 2227 4.2 17:37:19 10° NNW 17:42:57 69° ENE 17:48:33 10° SE
Cosmos 1242 Rocket 3.3 17:39:37 10° SSW 17:43:07 55° WNW 17:46:36 10° N
IRIDIUM 114 4.4 17:39:41 10° SSE 17:44:44 55° E 17:49:51 10° NNE
Okean-O 4.0 17:42:55 13° E 17:45:26 20° ENE 17:48:39 10° NNE
ISS -1.8 17:44:36 10° W 17:47:30 26° SW 17:50:22 10° SSE
CZ-4 R/B 1.7 17:44:01 10° SE 17:48:01 46° ENE 17:52:02 10° N
Cosmos 1697 Rocket 4.0 17:43:13 10° WSW 17:48:30 41° NW 17:53:50 10° NNE
Meteor 1-12 Rocket 4.5 17:45:06 10° S 17:50:55 55° E 17:56:48 10° NNE
BREEZE M DEB (TANK) 3.9 17:44:57 10° SSW 17:51:00 25° SSE 17:53:03 16° ESE
Cosmos 1908 Rocket 3.7 17:49:18 10° SSE 17:53:28 48° E 17:57:38 10° NNE
SL-14 R/B 3.9 17:49:50 10° NNW 17:53:46 62° W 17:57:42 10° S
OBJECT-B 2.0 17:54:14 17° ENE 17:54:14 17° ENE 17:55:39 10° NNE
IRIDIUM 103 4.3 17:48:43 10° S 17:53:52 66° E 17:59:03 10° N
Meteor 2-21 4.4 17:48:02 10° S 17:54:02 75° E 18:00:06 10° NNE
MOS 1-B 4.4 17:48:16 10° SSE 17:54:04 87° WSW 17:59:56 10° NNW
Cosmos 1733 4.2 17:51:43 10° SSW 17:55:21 49° WNW 17:59:01 10° N
Cosmos 2360 Rocket 3.4 17:51:50 10° SE 17:55:43 19° E 17:59:37 10° NE
Cosmos 1766 3.2 17:57:43 10° S 18:01:38 82° E 18:05:36 10° N
Cosmos 1782 Rocket 4.2 17:57:52 10° SSE 18:01:43 32° E 18:05:38 10° NNE
Cosmos 1674 Rocket 4.0 17:58:37 10° NNW 18:03:00 65° W 18:07:23 10° S
Meteor 2-10 4.4 17:57:40 10° SSW 18:03:17 74° WNW 18:08:45 10° N
NOSS 7 (E) 4.4 18:01:41 10° NW 18:04:55 82° NE 18:07:50 17° SE
Cosmos 1025 Rocket 3.7 18:01:46 10° N 18:05:41 32° ENE 18:07:56 20° ESE
YAOGAN 1 2.6 18:01:57 10° SSE 18:06:16 83° WSW 18:10:37 10° NNW
Cosmos 2026 Rocket 4.3 18:02:11 10° SSE 18:07:46 41° E 18:13:23 10° NNE
ATLAS 2AS CENTAUR R/B 4.4 18:01:53 10° NW 18:07:46 24° N 18:13:25 10° NE
Cosmos 968 Rocket 3.5 18:03:16 10° S 18:08:24 57° ESE 18:13:32 10° NNE
Okean O Rocket 1.5 18:05:44 10° SSE 18:10:06 89° ENE 18:14:31 10° NNW
IRIDIUM 106 4.3 18:06:56 10° S 18:12:09 89° W 18:17:25 10° N
Lacrosse 4 Rocket 2.2 18:09:43 10° S 18:13:14 28° ESE 18:13:56 27° E
Meteor 2-5 Rocket 3.6 18:09:53 10° N 18:15:26 68° ENE 18:20:56 10° SSE
Nadezhda 4 Rocket 4.0 18:09:15 10° S 18:15:35 89° E 18:21:56 10° N
Meteor 1-15 Rocket 4.1 18:11:47 10° S 18:17:20 74° E 18:22:53 10° NNE
CSL-04 Rocket 4.0 18:13:27 17° SE 18:17:21 46° ENE 18:22:32 10° N
Cosmos 2285 Rocket 4.3 18:15:41 10° NNW 18:22:02 73° WSW 18:28:22 10° SSE
USA 186 2.2 18:22:41 40° E 18:23:11 44° ENE 18:26:25 10° N
Cosmos 1726 3.5 18:20:27 10° SSW 18:23:54 40° WNW 18:27:23 10° N
Cosmos 2322 Rocket 2.4 18:18:52 10° S 18:24:17 47° ESE 18:29:45 10° NE
Cosmos 2237 4.4 18:19:26 10° S 18:24:53 49° ESE 18:30:22 10° NE
Landsat 7 4.4 18:25:23 30° E 18:26:42 36° ENE 18:31:01 10° N
Cosmos 1470 2.6 18:24:38 10° S 18:28:27 68° E 18:32:17 10° NNE
CZ-4B R/B 4.0 18:23:26 10° S 18:28:42 52° W 18:34:05 10° NNW
Cosmos 1980 Rocket 3.6 18:25:23 10° WSW 18:30:37 38° NW 18:35:52 10° NNE
Cosmos 1975 Rocket 3.0 18:26:26 10° N 18:30:50 61° ENE 18:33:09 26° SSE
NOSS 3-3 (A) 4.5 18:27:12 10° S 18:32:00 30° ESE 18:32:26 30° ESE
NOSS 3-3 (C) 4.5 18:27:20 10° S 18:32:06 30° ESE 18:32:22 30° ESE
CRYOSAT 2 4.3 18:34:18 16° SSE 18:38:14 64° E 18:43:06 10° N
Cosmos 2292 Rocket 3.7 18:33:35 10° SSW 18:38:41 77° W 18:42:34 10° N
USA 215 3.7 18:36:54 12° NE 18:42:55 58° NNW 18:49:18 10° W
IRS-1C Rocket 4.0 18:43:42 30° SE 18:46:15 66° ENE 18:51:29 10° N
Cosmos 1844 Rocket 2.6 18:44:44 10° NNW 18:50:28 83° ENE 18:52:59 35° SSE
SL-16 R/B 2.3 18:48:52 10° SSW 18:54:32 80° WNW 19:00:15 10° NNE
Landsat 5 3.5 18:50:55 10° NNE 18:55:28 82° ESE 18:59:53 10° SSW
Cosmos 1092 Rocket 4.1 18:50:48 10° SSW 18:57:07 80° W 19:03:24 10° N
Resurs 01 Rocket 2.6 19:01:19 34° NE 19:01:19 34° NE 19:04:27 10° N
Cosmos 836 Rocket 4.4 18:56:26 10° NNW 19:01:47 89° WSW 19:03:34 44° SSE
SJ-6B 2.9 19:02:07 55° SSW 19:02:42 66° WSW 19:06:31 10° NNW
Cosmos 2278 Rocket 3.6 19:01:08 10° N 19:05:32 22° NE 19:05:41 22° NE
H-2A R/B 3.5 19:07:12 32° NNE 19:07:12 32° NNE 19:09:32 10° N
Meteor 1-24 Rocket 4.4 19:05:31 10° NNW 19:10:38 50° W 19:15:48 10° SSW
Resurs 1-3 3.5 19:11:26 74° S 19:11:48 83° WSW 19:16:13 10° NNW
IRS-1A Rocket 4.4 19:15:25 52° ENE 19:15:33 52° ENE 19:21:11 10° N
MetOp-A 4.3 19:17:19 38° N 19:17:19 38° N 19:19:56 10° N
SL-4 R/B 4.1 19:13:19 10° W 19:16:48 22° SW 19:17:51 20° SSW
Cosmos 921 Rocket 4.4 19:12:49 10° N 19:15:35 30° NNE 19:15:35 30° NNE
Okean-O 3.2 19:20:29 43° SSW 19:21:32 54° W 19:25:55 10° NNW
CZ-4 R/B 4.0 19:20:07 10° SW 19:23:10 19° W 19:26:14 10° NW
OBJECT-B 3.7 19:24:56 13° WNW 19:24:56 13° WNW 19:25:26 10° NW
Cosmos 1486 Rocket 4.0 19:18:31 10° SSW 19:23:50 85° WNW 19:29:13 10° NNE
Cosmos 1844 3.9 19:19:23 10° NNW 19:24:55 66° WSW 19:26:12 50° S
Cosmos 2266 Rocket 4.5 19:26:59 44° NE 19:26:59 44° NE 19:31:47 10° NNE
DNEPR-1 R/B 4.0 19:23:31 10° SW 19:28:18 77° NW 19:30:36 36° NNE
S3M 3.8 19:23:40 10° N 19:29:55 70° E 19:30:10 69° E
Cosmos 1300 Rocket 4.2 19:30:15 46° WSW 19:31:01 53° WNW 19:35:19 10° N
Cosmos 773 Rocket 4.0 19:26:03 10° NNW 19:31:00 73° NNE 19:31:00 73° NNE
Meteor 1-21 Rocket 4.2 19:26:30 10° N 19:31:34 66° NE 19:31:34 66° NE
Cosmos 2360 Rocket 2.2 19:33:26 10° SSW 19:39:05 75° WNW 19:44:46 10° NNE
Lacrosse 4 Rocket 3.2 19:47:54 10° WSW 19:50:17 28° W 19:50:17 28° W
ATLAS 2AS CENTAUR R/B 3.7 19:54:25 10° NW 20:00:57 34° NNE 20:01:35 33° NE
SPOT 1/Viking Rocket 4.4 20:07:54 48° WNW 20:07:54 48° WNW 20:11:58 10° NNW
Cosmos 2322 Rocket 3.6 20:03:17 10° WSW 20:08:30 35° NW 20:13:44 10° NNE
NOSS 3-4 (A) 3.7 20:05:30 10° NW 20:12:04 82° N 20:12:04 82° N
NOSS 3-4 (C) 3.8 20:05:36 10° NW 20:12:10 82° N 20:12:10 82° N
Ariane Rocket 4.3 20:16:26 37° NNW 20:16:26 37° NNW 20:19:32 10° NNW
USA 215 4.1 20:24:15 40° NNE 20:25:19 43° N 20:31:24 10° WNW
USA 281 3.8 20:27:40 49° N 20:27:40 49° N 20:32:37 10° NNW
Resurs 01 Rocket 4.2 20:38:52 19° NW 20:38:52 19° NW 20:40:37 10° NW
Terra 4.3 20:42:43 17° N 20:42:43 17° N 20:43:45 10° N
Cosmos 1943 Rocket 4.1 20:36:43 10° NNW 20:38:59 22° N 20:38:59 22° N
Cosmos 2278 Rocket 3.8 20:44:39 10° NNW 20:47:32 31° NNW 20:47:32 31° NNW
Cosmos 2369 Rocket 4.5 20:56:48 10° N 20:58:48 17° N 20:58:48 17° N
Cosmos 2333 Rocket 4.5 21:18:31 19° N 21:18:31 19° N 21:20:28 10° NNE
ATLAS 2AS CENTAUR R/B 4.2 21:45:36 10° NW 21:49:00 30° NW 21:49:00 30° NW
